Location: Arborea
(39.7744°N, 8.5819°E)
Time: 23:32:01
(UTC+00:00)

Delta 2 Rocket - Pass Details

Date: 24 October 2021
Orbit: 415 x 797 km, 35.6° (Epoch: 27 November)

Event Time Altitude Azimuth Distance (km) Brightness Sun altitude
Rises 17:47:58 0° 260° (W) 2,497 8.5 -14.9°
Reaches altitude 10° 17:50:17 10° 253° (WSW) 1,573 6.9 -15.4°
Maximum altitude 17:53:38 41° 182° (S) 630 3.6 -16.0°
Enters shadow 17:54:48 29° 134° (SE) 796 3.8 -16.2°
